Time,TemperatureF,DewpointF,PressureIn,WindDirection,WindDirectionDegrees,WindSpeedMPH,WindSpeedGustMPH,Humidity,HourlyPrecipIn,Conditions,Clouds,dailyrainin,SoftwareType,DateUTC
2013-07-13 00:03:00,62.4,53.3,30.15,SSE,157,0.0,-999.0,72,-99.99,,,0.00,Acu-Link.com,2013-07-13 06:03:00,
2013-07-13 00:18:00,62.2,52.7,30.15,SSE,157,0.0,-999.0,71,-99.99,,,0.00,Acu-Link.com,2013-07-13 06:18:00,
2013-07-13 00:33:00,61.9,55.0,30.16,NW,315,0.0,-999.0,78,-99.99,,,0.00,Acu-Link.com,2013-07-13 06:33:00,
2013-07-13 00:49:00,61.5,54.9,30.16,ESE,112,0.0,-999.0,79,-99.99,,,0.00,Acu-Link.com,2013-07-13 06:49:00,
2013-07-13 01:04:00,61.5,53.1,30.16,ESE,112,0.0,-999.0,74,-99.99,,,0.00,Acu-Link.com,2013-07-13 07:04:00,
2013-07-13 01:19:00,61.5,53.5,30.15,ESE,112,2.2,-999.0,75,-99.99,,,0.00,Acu-Link.com,2013-07-13 07:19:00,
2013-07-13 01:35:00,61.7,53.3,30.15,ESE,112,0.0,-999.0,74,-99.99,,,0.00,Acu-Link.com,2013-07-13 07:35:00,
2013-07-13 01:50:00,61.7,53.0,30.15,ESE,112,0.0,-999.0,73,-99.99,,,0.00,Acu-Link.com,2013-07-13 07:50:00,
2013-07-13 02:05:00,61.2,52.8,30.15,ESE,112,0.0,-999.0,74,-99.99,,,0.00,Acu-Link.com,2013-07-13 08:05:00,
2013-07-13 02:20:00,61.3,52.6,30.16,ESE,112,0.0,-999.0,73,-99.99,,,0.00,Acu-Link.com,2013-07-13 08:20:00,
2013-07-13 02:35:00,61.0,52.7,30.15,ESE,112,0.0,-999.0,74,-99.99,,,0.00,Acu-Link.com,2013-07-13 08:35:00,
2013-07-13 02:50:00,61.0,54.8,30.15,WNW,292,0.0,-999.0,80,-99.99,,,0.00,Acu-Link.com,2013-07-13 08:50:00,
2013-07-13 03:05:00,60.6,52.6,30.15,SSE,157,0.0,-999.0,75,-99.99,,,0.00,Acu-Link.com,2013-07-13 09:05:00,
2013-07-13 03:21:00,59.9,53.0,30.15,SSE,157,0.0,-999.0,78,-99.99,,,0.00,Acu-Link.com,2013-07-13 09:21:00,
2013-07-13 03:36:00,58.8,52.0,30.16,SSE,157,0.0,-999.0,78,-99.99,,,0.00,Acu-Link.com,2013-07-13 09:36:00,
2013-07-13 03:51:00,57.9,51.4,30.16,SSE,157,0.0,-999.0,79,-99.99,,,0.00,Acu-Link.com,2013-07-13 09:51:00,
2013-07-13 04:06:00,57.9,51.1,30.16,SSE,157,3.7,-999.0,78,-99.99,,,0.00,Acu-Link.com,2013-07-13 10:06:00,
2013-07-13 04:21:00,57.7,50.9,30.16,SSE,157,0.0,-999.0,78,-99.99,,,0.00,Acu-Link.com,2013-07-13 10:21:00,
2013-07-13 04:37:00,56.8,51.4,30.16,SSE,157,0.0,-999.0,82,-99.99,,,0.00,Acu-Link.com,2013-07-13 10:37:00,
2013-07-13 04:52:00,56.1,51.3,30.16,SSE,157,0.0,-999.0,84,-99.99,,,0.00,Acu-Link.com,2013-07-13 10:52:00,
2013-07-13 05:07:00,55.8,50.7,30.16,SSE,157,0.0,-999.0,83,-99.99,,,0.00,Acu-Link.com,2013-07-13 11:07:00,
2013-07-13 05:23:00,55.2,50.1,30.16,SSE,157,1.7,-999.0,83,-99.99,,,0.00,Acu-Link.com,2013-07-13 11:23:00,
2013-07-13 05:38:00,55.0,50.9,30.16,SSE,157,0.0,-999.0,86,-99.99,,,0.00,Acu-Link.com,2013-07-13 11:38:00,
2013-07-13 05:53:00,55.6,50.2,30.18,SSE,157,0.0,-999.0,82,-99.99,,,0.00,Acu-Link.com,2013-07-13 11:53:00,
2013-07-13 06:08:00,55.0,50.6,30.17,SSE,157,0.0,-999.0,85,-99.99,,,0.00,Acu-Link.com,2013-07-13 12:08:00,
2013-07-13 06:24:00,55.0,50.6,30.18,SSE,157,0.0,-999.0,85,-99.99,,,0.00,Acu-Link.com,2013-07-13 12:24:00,
2013-07-13 06:39:00,57.0,51.9,30.18,SSE,157,2.7,-999.0,83,-99.99,,,0.00,Acu-Link.com,2013-07-13 12:39:00,
2013-07-13 06:54:00,61.9,55.3,30.19,SSE,157,1.7,-999.0,79,-99.99,,,0.00,Acu-Link.com,2013-07-13 12:54:00,
2013-07-13 07:10:00,65.5,55.4,30.18,SSE,157,0.0,-999.0,70,-99.99,,,0.00,Acu-Link.com,2013-07-13 13:10:00,
2013-07-13 07:25:00,68.4,57.8,30.19,SSE,157,0.0,-999.0,69,-99.99,,,0.00,Acu-Link.com,2013-07-13 13:25:00,
2013-07-13 07:40:00,73.8,58.6,30.19,SW,225,0.0,-999.0,59,-99.99,,,0.00,Acu-Link.com,2013-07-13 13:40:00,
2013-07-13 07:55:00,72.1,57.0,30.19,SW,225,0.0,-999.0,59,-99.99,,,0.00,Acu-Link.com,2013-07-13 13:55:00,
2013-07-13 08:11:00,76.1,59.2,30.20,WNW,292,0.0,-999.0,56,-99.99,,,0.00,Acu-Link.com,2013-07-13 14:11:00,
2013-07-13 08:26:00,77.2,59.2,30.19,NW,315,3.7,-999.0,54,-99.99,,,0.00,Acu-Link.com,2013-07-13 14:26:00,
2013-07-13 08:41:00,77.7,58.1,30.19,West,270,2.2,-999.0,51,-99.99,,,0.00,Acu-Link.com,2013-07-13 14:41:00,
2013-07-13 08:56:00,79.3,59.0,30.20,NE,45,2.7,-999.0,50,-99.99,,,0.00,Acu-Link.com,2013-07-13 14:56:00,
2013-07-13 09:12:00,80.2,57.5,30.20,North,0,3.7,-999.0,46,-99.99,,,0.00,Acu-Link.com,2013-07-13 15:12:00,
2013-07-13 09:27:00,76.6,56.6,30.18,ENE,67,2.2,-999.0,50,-99.99,,,0.00,Acu-Link.com,2013-07-13 15:27:00,
2013-07-13 09:42:00,76.6,57.1,30.18,West,270,2.7,-999.0,51,-99.99,,,0.00,Acu-Link.com,2013-07-13 15:42:00,
2013-07-13 09:58:00,77.5,57.4,30.18,WSW,247,1.1,-999.0,50,-99.99,,,0.00,Acu-Link.com,2013-07-13 15:58:00,
2013-07-13 10:13:00,79.3,55.5,30.19,West,270,2.2,-999.0,44,-99.99,,,0.00,Acu-Link.com,2013-07-13 16:13:00,
2013-07-13 10:28:00,80.4,57.1,30.17,NW,315,3.7,-999.0,45,-99.99,,,0.00,Acu-Link.com,2013-07-13 16:28:00,
2013-07-13 10:43:00,80.8,58.1,30.19,WNW,292,2.7,-999.0,46,-99.99,,,0.00,Acu-Link.com,2013-07-13 16:43:00,
2013-07-13 10:58:00,81.5,56.2,30.18,SSW,202,3.2,-999.0,42,-99.99,,,0.00,Acu-Link.com,2013-07-13 16:58:00,
2013-07-13 11:14:00,81.5,56.2,30.17,West,270,2.7,-999.0,42,-99.99,,,0.00,Acu-Link.com,2013-07-13 17:14:00,
2013-07-13 11:29:00,81.0,53.7,30.15,WNW,292,2.2,-999.0,39,-99.99,,,0.00,Acu-Link.com,2013-07-13 17:29:00,
2013-07-13 11:44:00,79.3,53.5,30.15,NE,45,2.2,-999.0,41,-99.99,,,0.00,Acu-Link.com,2013-07-13 17:44:00,
2013-07-13 12:00:00,83.1,55.5,30.15,ESE,112,5.8,-999.0,39,-99.99,,,0.00,Acu-Link.com,2013-07-13 18:00:00,
2013-07-13 12:15:00,81.1,53.8,30.14,NE,45,0.0,-999.0,39,-99.99,,,0.00,Acu-Link.com,2013-07-13 18:15:00,
2013-07-13 12:30:00,82.2,54.8,30.13,WSW,247,8.9,-999.0,39,-99.99,,,0.00,Acu-Link.com,2013-07-13 18:30:00,
2013-07-13 12:45:00,78.1,53.8,30.13,SSW,202,8.3,-999.0,43,-99.99,,,0.00,Acu-Link.com,2013-07-13 18:45:00,
2013-07-13 13:01:00,78.1,53.1,30.13,SSE,157,6.3,-999.0,42,-99.99,,,0.00,Acu-Link.com,2013-07-13 19:01:00,
2013-07-13 13:16:00,84.4,53.7,30.13,South,180,4.7,-999.0,35,-99.99,,,0.00,Acu-Link.com,2013-07-13 19:16:00,
2013-07-13 13:31:00,84.2,54.3,30.12,South,180,4.7,-999.0,36,-99.99,,,0.00,Acu-Link.com,2013-07-13 19:31:00,
2013-07-13 13:46:00,81.1,51.6,30.12,NNW,337,2.7,-999.0,36,-99.99,,,0.00,Acu-Link.com,2013-07-13 19:46:00,
2013-07-13 14:01:00,81.9,53.0,30.10,NE,45,3.2,-999.0,37,-99.99,,,0.00,Acu-Link.com,2013-07-13 20:01:00,
2013-07-13 14:16:00,81.9,51.5,30.10,South,180,4.7,-999.0,35,-99.99,,,0.00,Acu-Link.com,2013-07-13 20:16:00,
2013-07-13 14:32:00,79.0,52.6,30.10,SSE,157,14.5,-999.0,40,-99.99,,,0.00,Acu-Link.com,2013-07-13 20:32:00,
2013-07-13 14:47:00,77.4,52.5,30.11,SE,135,4.2,-999.0,42,-99.99,,,0.00,Acu-Link.com,2013-07-13 20:47:00,
2013-07-13 15:02:00,78.6,50.1,30.10,SSE,157,7.8,-999.0,37,-99.99,,,0.00,Acu-Link.com,2013-07-13 21:02:00,
2013-07-13 15:17:00,77.2,52.3,30.10,South,180,8.9,-999.0,42,-99.99,,,0.00,Acu-Link.com,2013-07-13 21:17:00,
2013-07-13 15:32:00,75.7,55.7,30.14,NW,315,4.7,-999.0,50,-99.99,,,0.00,Acu-Link.com,2013-07-13 21:32:00,
2013-07-13 15:47:00,67.1,57.0,30.15,SSW,202,6.3,-999.0,70,-99.99,,,0.03,Acu-Link.com,2013-07-13 21:47:00,
2013-07-13 16:02:00,65.1,56.2,30.14,ENE,67,4.2,-999.0,73,-99.99,,,0.09,Acu-Link.com,2013-07-13 22:02:00,
2013-07-13 16:17:00,64.9,56.0,30.16,SE,135,2.2,-999.0,73,-99.99,,,0.10,Acu-Link.com,2013-07-13 22:17:00,
2013-07-13 16:33:00,65.7,55.6,30.17,ESE,112,3.2,-999.0,70,-99.99,,,0.10,Acu-Link.com,2013-07-13 22:33:00,
2013-07-13 16:48:00,67.1,54.9,30.14,ESE,112,1.7,-999.0,65,-99.99,,,0.10,Acu-Link.com,2013-07-13 22:48:00,
2013-07-13 17:03:00,69.8,55.3,30.13,South,180,2.7,-999.0,60,-99.99,,,0.10,Acu-Link.com,2013-07-13 23:03:00,
2013-07-13 17:18:00,71.4,54.9,30.13,SE,135,7.8,-999.0,56,-99.99,,,0.10,Acu-Link.com,2013-07-13 23:18:00,
2013-07-13 17:33:00,72.1,54.5,30.12,East,90,5.3,-999.0,54,-99.99,,,0.10,Acu-Link.com,2013-07-13 23:33:00,
2013-07-13 17:48:00,72.9,54.8,30.10,East,90,8.3,-999.0,53,-99.99,,,0.10,Acu-Link.com,2013-07-13 23:48:00,
2013-07-13 18:04:00,74.5,54.1,30.10,SSE,157,4.2,-999.0,49,-99.99,,,0.10,Acu-Link.com,2013-07-14 00:04:00,
2013-07-13 18:19:00,78.3,55.2,30.09,ESE,112,3.2,-999.0,45,-99.99,,,0.10,Acu-Link.com,2013-07-14 00:19:00,
2013-07-13 18:34:00,80.4,56.5,30.09,ESE,112,1.7,-999.0,44,-99.99,,,0.10,Acu-Link.com,2013-07-14 00:34:00,
2013-07-13 18:50:00,82.2,54.0,30.09,NNW,337,4.7,-999.0,38,-99.99,,,0.10,Acu-Link.com,2013-07-14 00:50:00,
2013-07-13 19:05:00,82.8,59.9,30.09,NNW,337,1.7,-999.0,46,-99.99,,,0.10,Acu-Link.com,2013-07-14 01:05:00,
2013-07-13 19:20:00,81.5,59.9,30.09,SSW,202,0.0,-999.0,48,-99.99,,,0.10,Acu-Link.com,2013-07-14 01:20:00,
2013-07-13 19:36:00,83.5,61.1,30.09,WNW,292,0.0,-999.0,47,-99.99,,,0.10,Acu-Link.com,2013-07-14 01:36:00,
2013-07-13 19:51:00,82.6,59.7,30.10,West,270,0.0,-999.0,46,-99.99,,,0.10,Acu-Link.com,2013-07-14 01:51:00,
2013-07-13 20:06:00,79.9,58.4,30.09,NW,315,0.0,-999.0,48,-99.99,,,0.10,Acu-Link.com,2013-07-14 02:06:00,
2013-07-13 20:21:00,76.6,58.7,30.10,East,90,0.0,-999.0,54,-99.99,,,0.10,Acu-Link.com,2013-07-14 02:21:00,
2013-07-13 20:37:00,73.6,58.4,30.11,East,90,0.0,-999.0,59,-99.99,,,0.10,Acu-Link.com,2013-07-14 02:37:00,
2013-07-13 20:52:00,70.5,57.3,30.13,East,90,0.0,-999.0,63,-99.99,,,0.10,Acu-Link.com,2013-07-14 02:52:00,
2013-07-13 21:07:00,70.3,55.7,30.14,SW,225,5.3,-999.0,60,-99.99,,,0.10,Acu-Link.com,2013-07-14 03:07:00,
2013-07-13 21:22:00,71.4,53.9,30.14,SSW,202,3.7,-999.0,54,-99.99,,,0.10,Acu-Link.com,2013-07-14 03:22:00,
2013-07-13 21:38:00,70.5,53.5,30.17,SSW,202,6.3,-999.0,55,-99.99,,,0.10,Acu-Link.com,2013-07-14 03:38:00,
2013-07-13 21:54:00,70.7,53.7,30.17,SSW,202,3.7,-999.0,55,-99.99,,,0.10,Acu-Link.com,2013-07-14 03:54:00,
2013-07-13 22:09:00,69.6,54.2,30.20,SSW,202,4.2,-999.0,58,-99.99,,,0.10,Acu-Link.com,2013-07-14 04:09:00,
2013-07-13 22:25:00,69.3,53.9,30.19,South,180,4.2,-999.0,58,-99.99,,,0.10,Acu-Link.com,2013-07-14 04:25:00,
2013-07-13 22:40:00,68.0,53.6,30.20,WSW,247,1.7,-999.0,60,-99.99,,,0.10,Acu-Link.com,2013-07-14 04:40:00,
2013-07-13 22:55:00,66.9,54.3,30.19,ESE,112,0.0,-999.0,64,-99.99,,,0.10,Acu-Link.com,2013-07-14 04:55:00,
2013-07-13 23:10:00,66.4,54.7,30.18,ESE,112,0.0,-999.0,66,-99.99,,,0.10,Acu-Link.com,2013-07-14 05:10:00,
2013-07-13 23:26:00,65.5,54.2,30.19,ESE,112,0.0,-999.0,67,-99.99,,,0.10,Acu-Link.com,2013-07-14 05:26:00,
2013-07-13 23:41:00,64.4,55.2,30.18,South,180,0.0,-999.0,72,-99.99,,,0.10,Acu-Link.com,2013-07-14 05:41:00,
2013-07-13 23:56:00,63.7,54.9,30.18,South,180,0.0,-999.0,73,-99.99,,,0.10,Acu-Link.com,2013-07-14 05:56:00,